#datetime,building,power
2024-01-09T00:00:00,mfh,27.60
2024-01-09T00:01:00,mfh,28.41
2024-01-09T00:02:00,mfh,28.39
2024-01-09T00:03:00,mfh,28.43
2024-01-09T00:04:00,mfh,28.37
2024-01-09T00:05:00,mfh,28.83
2024-01-09T00:06:00,mfh,28.36
2024-01-09T00:07:00,mfh,27.62
2024-01-09T00:08:00,mfh,27.57
2024-01-09T00:09:00,mfh,27.55
2024-01-09T00:10:00,mfh,28.23
2024-01-09T00:11:00,mfh,28.32
2024-01-09T00:12:00,mfh,28.29
2024-01-09T00:13:00,mfh,28.58
2024-01-09T00:14:00,mfh,28.71
2024-01-09T00:15:00,mfh,28.49
2024-01-09T00:16:00,mfh,27.78
2024-01-09T00:17:00,mfh,28.08
2024-01-09T00:18:00,mfh,27.88
2024-01-09T00:19:00,mfh,28.46
2024-01-09T00:20:00,mfh,28.49
2024-01-09T00:21:00,mfh,29.38
2024-01-09T00:22:00,mfh,28.44
2024-01-09T00:23:00,mfh,28.25
2024-01-09T00:24:00,mfh,28.31
2024-01-09T00:25:00,mfh,28.40
2024-01-09T00:26:00,mfh,27.40
2024-01-09T00:27:00,mfh,24.19
2024-01-09T00:28:00,mfh,24.10
2024-01-09T00:29:00,mfh,24.88
2024-01-09T00:30:00,mfh,25.46
2024-01-09T00:31:00,mfh,24.79
2024-01-09T00:32:00,mfh,24.85
2024-01-09T00:33:00,mfh,25.25
2024-01-09T00:34:00,mfh,24.96
2024-01-09T00:35:00,mfh,24.42
2024-01-09T00:36:00,mfh,24.49
2024-01-09T00:37:00,mfh,24.66
2024-01-09T00:38:00,mfh,24.62
2024-01-09T00:39:00,mfh,25.34
2024-01-09T00:40:00,mfh,25.40
2024-01-09T00:41:00,mfh,25.56
2024-01-09T00:42:00,mfh,25.45
2024-01-09T00:43:00,mfh,25.41
2024-01-09T00:44:00,mfh,25.46
2024-01-09T00:45:00,mfh,24.63
2024-01-09T00:46:00,mfh,24.45
2024-01-09T00:47:00,mfh,24.33
2024-01-09T00:48:00,mfh,25.85
2024-01-09T00:49:00,mfh,25.09
2024-01-09T00:50:00,mfh,25.14
2024-01-09T00:51:00,mfh,25.03
2024-01-09T00:52:00,mfh,25.55
2024-01-09T00:53:00,mfh,25.06
2024-01-09T00:54:00,mfh,25.02
2024-01-09T00:55:00,mfh,24.34
2024-01-09T00:56:00,mfh,24.42
2024-01-09T00:57:00,mfh,24.69
2024-01-09T00:58:00,mfh,25.05
2024-01-09T00:59:00,mfh,25.13
2024-01-09T01:00:00,mfh,25.39
2024-01-09T01:01:00,mfh,25.55
2024-01-09T01:02:00,mfh,25.90
2024-01-09T01:03:00,mfh,25.38
2024-01-09T01:04:00,mfh,24.63
2024-01-09T01:05:00,mfh,24.73
2024-01-09T01:06:00,mfh,25.14
2024-01-09T01:07:00,mfh,25.08
2024-01-09T01:08:00,mfh,25.05
2024-01-09T01:09:00,mfh,25.00
2024-01-09T01:10:00,mfh,25.52
2024-01-09T01:11:00,mfh,25.02
2024-01-09T01:12:00,mfh,25.05
2024-01-09T01:13:00,mfh,25.17
2024-01-09T01:14:00,mfh,24.55
2024-01-09T01:15:00,mfh,24.41
2024-01-09T01:16:00,mfh,24.46
2024-01-09T01:17:00,mfh,25.14
2024-01-09T01:18:00,mfh,25.14
2024-01-09T01:19:00,mfh,25.11
2024-01-09T01:20:00,mfh,25.12
2024-01-09T01:21:00,mfh,25.61
2024-01-09T01:22:00,mfh,25.27
2024-01-09T01:23:00,mfh,25.33
2024-01-09T01:24:00,mfh,25.15
2024-01-09T01:25:00,mfh,24.84
2024-01-09T01:26:00,mfh,24.89
2024-01-09T01:27:00,mfh,25.49
2024-01-09T01:28:00,mfh,25.48
2024-01-09T01:29:00,mfh,25.41
2024-01-09T01:30:00,mfh,25.38
2024-01-09T01:31:00,mfh,25.48
2024-01-09T01:32:00,mfh,25.19
2024-01-09T01:33:00,mfh,24.46
2024-01-09T01:34:00,mfh,24.61
2024-01-09T01:35:00,mfh,24.60
2024-01-09T01:36:00,mfh,25.87
2024-01-09T01:37:00,mfh,25.54
2024-01-09T01:38:00,mfh,25.48
2024-01-09T01:39:00,mfh,25.43
2024-01-09T01:40:00,mfh,25.49
2024-01-09T01:41:00,mfh,25.44
2024-01-09T01:42:00,mfh,24.64
2024-01-09T01:43:00,mfh,25.31
2024-01-09T01:44:00,mfh,24.68
2024-01-09T01:45:00,mfh,24.61
2024-01-09T01:46:00,mfh,26.16
2024-01-09T01:47:00,mfh,27.22
2024-01-09T01:48:00,mfh,26.30
2024-01-09T01:49:00,mfh,26.66
2024-01-09T01:50:00,mfh,26.60
2024-01-09T01:51:00,mfh,26.60
2024-01-09T01:52:00,mfh,26.53
2024-01-09T01:53:00,mfh,25.03
2024-01-09T01:54:00,mfh,24.83
2024-01-09T01:55:00,mfh,24.91
2024-01-09T01:56:00,mfh,25.54
2024-01-09T01:57:00,mfh,25.64
2024-01-09T01:58:00,mfh,25.50
2024-01-09T01:59:00,mfh,25.54
2024-01-09T02:00:00,mfh,25.57
2024-01-09T02:01:00,mfh,25.62
2024-01-09T02:02:00,mfh,24.85
2024-01-09T02:03:00,mfh,24.83
2024-01-09T02:04:00,mfh,25.21
2024-01-09T02:05:00,mfh,25.34
2024-01-09T02:06:00,mfh,25.33
2024-01-09T02:07:00,mfh,25.18
2024-01-09T02:08:00,mfh,25.18
2024-01-09T02:09:00,mfh,25.65
2024-01-09T02:10:00,mfh,25.09
2024-01-09T02:11:00,mfh,25.11
2024-01-09T02:12:00,mfh,24.32
2024-01-09T02:13:00,mfh,24.33
2024-01-09T02:14:00,mfh,24.45
2024-01-09T02:15:00,mfh,25.11
2024-01-09T02:16:00,mfh,25.26
2024-01-09T02:17:00,mfh,25.12
2024-01-09T02:18:00,mfh,25.18
2024-01-09T02:19:00,mfh,25.58
2024-01-09T02:20:00,mfh,25.33
2024-01-09T02:21:00,mfh,24.68
2024-01-09T02:22:00,mfh,24.63
2024-01-09T02:23:00,mfh,24.61
2024-01-09T02:24:00,mfh,25.10
2024-01-09T02:25:00,mfh,25.15
2024-01-09T02:26:00,mfh,25.18
2024-01-09T02:27:00,mfh,25.45
2024-01-09T02:28:00,mfh,24.94
2024-01-09T02:29:00,mfh,25.01
2024-01-09T02:30:00,mfh,24.44
2024-01-09T02:31:00,mfh,24.38
2024-01-09T02:32:00,mfh,24.39
2024-01-09T02:33:00,mfh,24.74
2024-01-09T02:34:00,mfh,24.95
2024-01-09T02:35:00,mfh,25.00
2024-01-09T02:36:00,mfh,25.58
2024-01-09T02:37:00,mfh,24.94
2024-01-09T02:38:00,mfh,25.10
2024-01-09T02:39:00,mfh,24.37
2024-01-09T02:40:00,mfh,24.38
2024-01-09T02:41:00,mfh,24.44
2024-01-09T02:42:00,mfh,25.13
2024-01-09T02:43:00,mfh,25.16
2024-01-09T02:44:00,mfh,24.94
2024-01-09T02:45:00,mfh,25.55
2024-01-09T02:46:00,mfh,25.18
2024-01-09T02:47:00,mfh,25.70
2024-01-09T02:48:00,mfh,25.25
2024-01-09T02:49:00,mfh,24.93
2024-01-09T02:50:00,mfh,24.67
2024-01-09T02:51:00,mfh,24.60
2024-01-09T02:52:00,mfh,25.22
2024-01-09T02:53:00,mfh,25.36
2024-01-09T02:54:00,mfh,25.36
2024-01-09T02:55:00,mfh,25.78
2024-01-09T02:56:00,mfh,25.25
2024-01-09T02:57:00,mfh,25.25
2024-01-09T02:58:00,mfh,25.46
2024-01-09T02:59:00,mfh,24.76
2024-01-09T03:00:00,mfh,24.88
2024-01-09T03:01:00,mfh,25.02
2024-01-09T03:02:00,mfh,26.36
2024-01-09T03:03:00,mfh,25.41
2024-01-09T03:04:00,mfh,25.51
2024-01-09T03:05:00,mfh,25.40
2024-01-09T03:06:00,mfh,25.78
2024-01-09T03:07:00,mfh,25.27
2024-01-09T03:08:00,mfh,24.97
2024-01-09T03:09:00,mfh,24.55
2024-01-09T03:10:00,mfh,24.61
2024-01-09T03:11:00,mfh,25.30
2024-01-09T03:12:00,mfh,25.36
2024-01-09T03:13:00,mfh,25.67
2024-01-09T03:14:00,mfh,25.57
2024-01-09T03:15:00,mfh,25.22
2024-01-09T03:16:00,mfh,25.22
2024-01-09T03:17:00,mfh,24.52
2024-01-09T03:18:00,mfh,24.42
2024-01-09T03:19:00,mfh,24.45
2024-01-09T03:20:00,mfh,25.10
2024-01-09T03:21:00,mfh,25.10
2024-01-09T03:22:00,mfh,25.66
2024-01-09T03:23:00,mfh,25.37
2024-01-09T03:24:00,mfh,25.37
2024-01-09T03:25:00,mfh,25.36
2024-01-09T03:26:00,mfh,25.51
2024-01-09T03:27:00,mfh,24.64
2024-01-09T03:28:00,mfh,24.62
2024-01-09T03:29:00,mfh,25.30
2024-01-09T03:30:00,mfh,25.01
2024-01-09T03:31:00,mfh,25.04
2024-01-09T03:32:00,mfh,25.05
2024-01-09T03:33:00,mfh,25.12
2024-01-09T03:34:00,mfh,25.45
2024-01-09T03:35:00,mfh,25.28
2024-01-09T03:36:00,mfh,24.41
2024-01-09T03:37:00,mfh,24.42
2024-01-09T03:38:00,mfh,24.68
2024-01-09T03:39:00,mfh,25.14
2024-01-09T03:40:00,mfh,25.14
2024-01-09T03:41:00,mfh,25.30
2024-01-09T03:42:00,mfh,25.07
2024-01-09T03:43:00,mfh,25.04
2024-01-09T03:44:00,mfh,25.13
2024-01-09T03:45:00,mfh,26.49
2024-01-09T03:46:00,mfh,25.40
2024-01-09T03:47:00,mfh,25.30
2024-01-09T03:48:00,mfh,25.28
2024-01-09T03:49:00,mfh,26.01
2024-01-09T03:50:00,mfh,26.18
2024-01-09T03:51:00,mfh,25.04
2024-01-09T03:52:00,mfh,25.61
2024-01-09T03:53:00,mfh,25.14
2024-01-09T03:54:00,mfh,25.35
2024-01-09T03:55:00,mfh,24.67
2024-01-09T03:56:00,mfh,24.66
2024-01-09T03:57:00,mfh,24.65
2024-01-09T03:58:00,mfh,25.27
2024-01-09T03:59:00,mfh,25.25
2024-01-09T04:00:00,mfh,25.47
2024-01-09T04:01:00,mfh,25.55
2024-01-09T04:02:00,mfh,25.78
2024-01-09T04:03:00,mfh,26.35
2024-01-09T04:04:00,mfh,25.71
2024-01-09T04:05:00,mfh,25.04
2024-01-09T04:06:00,mfh,29.35
2024-01-09T04:07:00,mfh,37.45
2024-01-09T04:08:00,mfh,37.16
2024-01-09T04:09:00,mfh,37.62
2024-01-09T04:10:00,mfh,37.66
2024-01-09T04:11:00,mfh,37.63
2024-01-09T04:12:00,mfh,37.64
2024-01-09T04:13:00,mfh,38.08
2024-01-09T04:14:00,mfh,36.98
2024-01-09T04:15:00,mfh,36.97
2024-01-09T04:16:00,mfh,36.81
2024-01-09T04:17:00,mfh,37.35
2024-01-09T04:18:00,mfh,33.85
2024-01-09T04:19:00,mfh,32.97
2024-01-09T04:20:00,mfh,32.94
2024-01-09T04:21:00,mfh,32.97
2024-01-09T04:22:00,mfh,32.97
2024-01-09T04:23:00,mfh,32.92
2024-01-09T04:24:00,mfh,32.77
2024-01-09T04:25:00,mfh,24.19
2024-01-09T04:26:00,mfh,24.61
2024-01-09T04:27:00,mfh,25.16
2024-01-09T04:28:00,mfh,25.69
2024-01-09T04:29:00,mfh,23.14
2024-01-09T04:30:00,mfh,23.18
2024-01-09T04:31:00,mfh,23.53
2024-01-09T04:32:00,mfh,23.67
2024-01-09T04:33:00,mfh,23.98
2024-01-09T04:34:00,mfh,23.20
2024-01-09T04:35:00,mfh,23.34
2024-01-09T04:36:00,mfh,23.34
2024-01-09T04:37:00,mfh,23.94
2024-01-09T04:38:00,mfh,24.22
2024-01-09T04:39:00,mfh,23.94
2024-01-09T04:40:00,mfh,23.86
2024-01-09T04:41:00,mfh,24.08
2024-01-09T04:42:00,mfh,23.84
2024-01-09T04:43:00,mfh,22.94
2024-01-09T04:44:00,mfh,22.33
2024-01-09T04:45:00,mfh,22.31
2024-01-09T04:46:00,mfh,22.26
2024-01-09T04:47:00,mfh,23.02
2024-01-09T04:48:00,mfh,23.63
2024-01-09T04:49:00,mfh,23.32
2024-01-09T04:50:00,mfh,23.59
2024-01-09T04:51:00,mfh,23.46
2024-01-09T04:52:00,mfh,23.31
2024-01-09T04:53:00,mfh,22.69
2024-01-09T04:54:00,mfh,22.82
2024-01-09T04:55:00,mfh,22.86
2024-01-09T04:56:00,mfh,23.49
2024-01-09T04:57:00,mfh,23.41
2024-01-09T04:58:00,mfh,23.40
2024-01-09T04:59:00,mfh,25.93
2024-01-09T05:00:00,mfh,25.35
2024-01-09T05:01:00,mfh,43.73
2024-01-09T05:02:00,mfh,47.44
2024-01-09T05:03:00,mfh,47.53
2024-01-09T05:04:00,mfh,46.66
2024-01-09T05:05:00,mfh,46.91
2024-01-09T05:06:00,mfh,46.77
2024-01-09T05:07:00,mfh,46.81
2024-01-09T05:08:00,mfh,47.03
2024-01-09T05:09:00,mfh,53.61
2024-01-09T05:10:00,mfh,54.85
2024-01-09T05:11:00,mfh,55.03
2024-01-09T05:12:00,mfh,55.23
2024-01-09T05:13:00,mfh,54.68
2024-01-09T05:14:00,mfh,55.24
2024-01-09T05:15:00,mfh,54.75
2024-01-09T05:16:00,mfh,55.56
2024-01-09T05:17:00,mfh,55.06
2024-01-09T05:18:00,mfh,55.65
2024-01-09T05:19:00,mfh,55.51
2024-01-09T05:20:00,mfh,55.37
2024-01-09T05:21:00,mfh,55.73
2024-01-09T05:22:00,mfh,54.73
2024-01-09T05:23:00,mfh,54.51
2024-01-09T05:24:00,mfh,54.44
2024-01-09T05:25:00,mfh,54.56
2024-01-09T05:26:00,mfh,55.19
2024-01-09T05:27:00,mfh,55.22
2024-01-09T05:28:00,mfh,54.94
2024-01-09T05:29:00,mfh,54.79
2024-01-09T05:30:00,mfh,55.01
2024-01-09T05:31:00,mfh,55.12
2024-01-09T05:32:00,mfh,54.33
2024-01-09T05:33:00,mfh,54.26
2024-01-09T05:34:00,mfh,55.82
2024-01-09T05:35:00,mfh,57.06
2024-01-09T05:36:00,mfh,57.84
2024-01-09T05:37:00,mfh,58.24
2024-01-09T05:38:00,mfh,58.40
2024-01-09T05:39:00,mfh,56.52
2024-01-09T05:40:00,mfh,56.32
2024-01-09T05:41:00,mfh,56.04
2024-01-09T05:42:00,mfh,55.93
2024-01-09T05:43:00,mfh,55.78
2024-01-09T05:44:00,mfh,56.11
2024-01-09T05:45:00,mfh,56.21
2024-01-09T05:46:00,mfh,56.09
2024-01-09T05:47:00,mfh,56.19
2024-01-09T05:48:00,mfh,56.92
2024-01-09T05:49:00,mfh,56.93
2024-01-09T05:50:00,mfh,56.25
2024-01-09T05:51:00,mfh,56.21
2024-01-09T05:52:00,mfh,55.97
2024-01-09T05:53:00,mfh,56.71
2024-01-09T05:54:00,mfh,55.97
2024-01-09T05:55:00,mfh,55.98
2024-01-09T05:56:00,mfh,55.96
2024-01-09T05:57:00,mfh,55.84
2024-01-09T05:58:00,mfh,56.11
2024-01-09T05:59:00,mfh,56.56
2024-01-09T06:00:00,mfh,55.65
2024-01-09T06:01:00,mfh,61.41
2024-01-09T06:02:00,mfh,62.23
2024-01-09T06:03:00,mfh,62.22
2024-01-09T06:04:00,mfh,62.30
2024-01-09T06:05:00,mfh,61.71
2024-01-09T06:06:00,mfh,61.79
2024-01-09T06:07:00,mfh,62.82
2024-01-09T06:08:00,mfh,62.08
2024-01-09T06:09:00,mfh,62.07
2024-01-09T06:10:00,mfh,62.41
2024-01-09T06:11:00,mfh,62.21
2024-01-09T06:12:00,mfh,62.66
2024-01-09T06:13:00,mfh,61.05
2024-01-09T06:14:00,mfh,60.97
2024-01-09T06:15:00,mfh,61.84
2024-01-09T06:16:00,mfh,63.23
2024-01-09T06:17:00,mfh,62.01
2024-01-09T06:18:00,mfh,62.13
2024-01-09T06:19:00,mfh,62.13
2024-01-09T06:20:00,mfh,62.22
2024-01-09T06:21:00,mfh,61.88
2024-01-09T06:22:00,mfh,61.80
2024-01-09T06:23:00,mfh,61.60
2024-01-09T06:24:00,mfh,61.52
2024-01-09T06:25:00,mfh,61.49
2024-01-09T06:26:00,mfh,61.29
2024-01-09T06:27:00,mfh,62.79
2024-01-09T06:28:00,mfh,62.79
2024-01-09T06:29:00,mfh,62.77
2024-01-09T06:30:00,mfh,62.08
2024-01-09T06:31:00,mfh,62.17
2024-01-09T06:32:00,mfh,62.42
2024-01-09T06:33:00,mfh,62.45
2024-01-09T06:34:00,mfh,62.66
2024-01-09T06:35:00,mfh,62.66
2024-01-09T06:36:00,mfh,62.65
2024-01-09T06:37:00,mfh,62.72
2024-01-09T06:38:00,mfh,62.88
2024-01-09T06:39:00,mfh,63.42
2024-01-09T06:40:00,mfh,63.78
2024-01-09T06:41:00,mfh,63.40
2024-01-09T06:42:00,mfh,63.36
2024-01-09T06:43:00,mfh,63.31
2024-01-09T06:44:00,mfh,63.54
2024-01-09T06:45:00,mfh,62.92
2024-01-09T06:46:00,mfh,63.17
2024-01-09T06:47:00,mfh,63.74
2024-01-09T06:48:00,mfh,63.88
2024-01-09T06:49:00,mfh,63.49
2024-01-09T06:50:00,mfh,63.26
2024-01-09T06:51:00,mfh,63.13
2024-01-09T06:52:00,mfh,63.14
2024-01-09T06:53:00,mfh,62.61
2024-01-09T06:54:00,mfh,62.71
2024-01-09T06:55:00,mfh,62.73
2024-01-09T06:56:00,mfh,63.68
2024-01-09T06:57:00,mfh,62.79
2024-01-09T06:58:00,mfh,62.83
2024-01-09T06:59:00,mfh,62.26
2024-01-09T07:00:00,mfh,61.57
2024-01-09T07:01:00,mfh,61.53
2024-01-09T07:02:00,mfh,61.84
2024-01-09T07:03:00,mfh,63.03
2024-01-09T07:04:00,mfh,62.87
2024-01-09T07:05:00,mfh,62.76
2024-01-09T07:06:00,mfh,62.96
2024-01-09T07:07:00,mfh,64.05
2024-01-09T07:08:00,mfh,62.22
2024-01-09T07:09:00,mfh,61.28
2024-01-09T07:10:00,mfh,61.06
2024-01-09T07:11:00,mfh,60.60
2024-01-09T07:12:00,mfh,60.18
2024-01-09T07:13:00,mfh,60.56
2024-01-09T07:14:00,mfh,59.54
2024-01-09T07:15:00,mfh,59.68
2024-01-09T07:16:00,mfh,59.30
2024-01-09T07:17:00,mfh,59.72
2024-01-09T07:18:00,mfh,59.36
2024-01-09T07:19:00,mfh,59.10
2024-01-09T07:20:00,mfh,59.13
2024-01-09T07:21:00,mfh,59.73
2024-01-09T07:22:00,mfh,59.64
2024-01-09T07:23:00,mfh,59.70
2024-01-09T07:24:00,mfh,60.58
2024-01-09T07:25:00,mfh,59.84
2024-01-09T07:26:00,mfh,59.82
2024-01-09T07:27:00,mfh,60.14
2024-01-09T07:28:00,mfh,59.80
2024-01-09T07:29:00,mfh,59.86
2024-01-09T07:30:00,mfh,59.74
2024-01-09T07:31:00,mfh,58.62
2024-01-09T07:32:00,mfh,59.32
2024-01-09T07:33:00,mfh,59.40
2024-01-09T07:34:00,mfh,60.02
2024-01-09T07:35:00,mfh,59.45
2024-01-09T07:36:00,mfh,59.53
2024-01-09T07:37:00,mfh,59.63
2024-01-09T07:38:00,mfh,59.34
2024-01-09T07:39:00,mfh,61.30
2024-01-09T07:40:00,mfh,61.74
2024-01-09T07:41:00,mfh,61.44
2024-01-09T07:42:00,mfh,61.41
2024-01-09T07:43:00,mfh,62.11
2024-01-09T07:44:00,mfh,61.45
2024-01-09T07:45:00,mfh,61.15
2024-01-09T07:46:00,mfh,61.13
2024-01-09T07:47:00,mfh,62.29
2024-01-09T07:48:00,mfh,61.75
2024-01-09T07:49:00,mfh,62.03
2024-01-09T07:50:00,mfh,66.94
2024-01-09T07:51:00,mfh,66.78
2024-01-09T07:52:00,mfh,67.26
2024-01-09T07:53:00,mfh,66.78
2024-01-09T07:54:00,mfh,66.51
2024-01-09T07:55:00,mfh,66.04
2024-01-09T07:56:00,mfh,66.13
2024-01-09T07:57:00,mfh,66.46
2024-01-09T07:58:00,mfh,66.14
2024-01-09T07:59:00,mfh,65.81
2024-01-09T08:00:00,mfh,65.41
2024-01-09T08:01:00,mfh,65.17
2024-01-09T08:02:00,mfh,65.04
2024-01-09T08:03:00,mfh,65.61
2024-01-09T08:04:00,mfh,65.66
2024-01-09T08:05:00,mfh,65.66
2024-01-09T08:06:00,mfh,65.53
2024-01-09T08:07:00,mfh,65.50
2024-01-09T08:08:00,mfh,61.63
2024-01-09T08:09:00,mfh,61.59
2024-01-09T08:10:00,mfh,61.61
2024-01-09T08:11:00,mfh,61.43
2024-01-09T08:12:00,mfh,61.80
2024-01-09T08:13:00,mfh,62.29
2024-01-09T08:14:00,mfh,62.27
2024-01-09T08:15:00,mfh,61.59
2024-01-09T08:16:00,mfh,61.55
2024-01-09T08:17:00,mfh,61.39
2024-01-09T08:18:00,mfh,61.92
2024-01-09T08:19:00,mfh,61.63
2024-01-09T08:20:00,mfh,61.48
2024-01-09T08:21:00,mfh,61.80
2024-01-09T08:22:00,mfh,61.84
2024-01-09T08:23:00,mfh,61.55
2024-01-09T08:24:00,mfh,62.00
2024-01-09T08:25:00,mfh,61.40
2024-01-09T08:26:00,mfh,62.14
2024-01-09T08:27:00,mfh,61.02
2024-01-09T08:28:00,mfh,60.68
2024-01-09T08:29:00,mfh,60.02
2024-01-09T08:30:00,mfh,60.63
2024-01-09T08:31:00,mfh,61.53
2024-01-09T08:32:00,mfh,61.80
2024-01-09T08:33:00,mfh,61.78
2024-01-09T08:34:00,mfh,61.76
2024-01-09T08:35:00,mfh,61.99
2024-01-09T08:36:00,mfh,62.05
2024-01-09T08:37:00,mfh,61.16
2024-01-09T08:38:00,mfh,65.74
2024-01-09T08:39:00,mfh,65.65
2024-01-09T08:40:00,mfh,66.95
2024-01-09T08:41:00,mfh,66.08
2024-01-09T08:42:00,mfh,64.99
2024-01-09T08:43:00,mfh,64.73
2024-01-09T08:44:00,mfh,66.98
2024-01-09T08:45:00,mfh,66.59
2024-01-09T08:46:00,mfh,66.84
2024-01-09T08:47:00,mfh,68.22
2024-01-09T08:48:00,mfh,67.62
2024-01-09T08:49:00,mfh,67.66
2024-01-09T08:50:00,mfh,67.45
2024-01-09T08:51:00,mfh,67.24
2024-01-09T08:52:00,mfh,66.48
2024-01-09T08:53:00,mfh,67.12
2024-01-09T08:54:00,mfh,66.51
2024-01-09T08:55:00,mfh,61.64
2024-01-09T08:56:00,mfh,64.01
2024-01-09T08:57:00,mfh,64.32
2024-01-09T08:58:00,mfh,63.06
2024-01-09T08:59:00,mfh,63.41
2024-01-09T09:00:00,mfh,63.83
2024-01-09T09:01:00,mfh,64.09
2024-01-09T09:02:00,mfh,63.76
2024-01-09T09:03:00,mfh,64.42
2024-01-09T09:04:00,mfh,64.67
2024-01-09T09:05:00,mfh,64.57
2024-01-09T09:06:00,mfh,65.29
2024-01-09T09:07:00,mfh,65.27
2024-01-09T09:08:00,mfh,64.83
2024-01-09T09:09:00,mfh,65.77
2024-01-09T09:10:00,mfh,65.28
2024-01-09T09:11:00,mfh,64.62
2024-01-09T09:12:00,mfh,68.07
2024-01-09T09:13:00,mfh,69.62
2024-01-09T09:14:00,mfh,68.74
2024-01-09T09:15:00,mfh,70.06
2024-01-09T09:16:00,mfh,68.61
2024-01-09T09:17:00,mfh,69.31
2024-01-09T09:18:00,mfh,68.42
2024-01-09T09:19:00,mfh,68.94
2024-01-09T09:20:00,mfh,66.62
2024-01-09T09:21:00,mfh,66.92
2024-01-09T09:22:00,mfh,66.27
2024-01-09T09:23:00,mfh,66.26
2024-01-09T09:24:00,mfh,65.77
2024-01-09T09:25:00,mfh,65.77
2024-01-09T09:26:00,mfh,65.51
2024-01-09T09:27:00,mfh,66.20
2024-01-09T09:28:00,mfh,65.87
2024-01-09T09:29:00,mfh,66.06
2024-01-09T09:30:00,mfh,67.49
2024-01-09T09:31:00,mfh,67.44
2024-01-09T09:32:00,mfh,68.06
2024-01-09T09:33:00,mfh,68.53
2024-01-09T09:34:00,mfh,67.67
2024-01-09T09:35:00,mfh,67.45
2024-01-09T09:36:00,mfh,66.64
2024-01-09T09:37:00,mfh,70.61
2024-01-09T09:38:00,mfh,74.16
2024-01-09T09:39:00,mfh,74.34
2024-01-09T09:40:00,mfh,73.31
2024-01-09T09:41:00,mfh,72.59
2024-01-09T09:42:00,mfh,72.82
2024-01-09T09:43:00,mfh,72.84
2024-01-09T09:44:00,mfh,72.86
2024-01-09T09:45:00,mfh,72.72
2024-01-09T09:46:00,mfh,73.48
2024-01-09T09:47:00,mfh,69.73
2024-01-09T09:48:00,mfh,69.59
2024-01-09T09:49:00,mfh,68.53
2024-01-09T09:50:00,mfh,76.16
2024-01-09T09:51:00,mfh,76.31
2024-01-09T09:52:00,mfh,78.26
2024-01-09T09:53:00,mfh,78.70
2024-01-09T09:54:00,mfh,78.59
2024-01-09T09:55:00,mfh,79.11
2024-01-09T09:56:00,mfh,78.31
2024-01-09T09:57:00,mfh,78.29
2024-01-09T09:58:00,mfh,78.09
2024-01-09T09:59:00,mfh,78.54
2024-01-09T10:00:00,mfh,78.45
2024-01-09T10:01:00,mfh,78.60
2024-01-09T10:02:00,mfh,78.97
2024-01-09T10:03:00,mfh,78.52
2024-01-09T10:04:00,mfh,79.22
2024-01-09T10:05:00,mfh,79.28
2024-01-09T10:06:00,mfh,79.45
2024-01-09T10:07:00,mfh,80.39
2024-01-09T10:08:00,mfh,79.32
2024-01-09T10:09:00,mfh,79.95
2024-01-09T10:10:00,mfh,79.11
2024-01-09T10:11:00,mfh,79.49
2024-01-09T10:12:00,mfh,79.21
2024-01-09T10:13:00,mfh,79.11
2024-01-09T10:14:00,mfh,79.07
2024-01-09T10:15:00,mfh,78.69
2024-01-09T10:16:00,mfh,78.98
2024-01-09T10:17:00,mfh,79.11
2024-01-09T10:18:00,mfh,79.23
2024-01-09T10:19:00,mfh,79.54
2024-01-09T10:20:00,mfh,79.32
2024-01-09T10:21:00,mfh,78.83
2024-01-09T10:22:00,mfh,78.14
2024-01-09T10:23:00,mfh,77.81
2024-01-09T10:24:00,mfh,78.44
2024-01-09T10:25:00,mfh,74.55
2024-01-09T10:26:00,mfh,74.41
2024-01-09T10:27:00,mfh,74.28
2024-01-09T10:28:00,mfh,77.82
2024-01-09T10:29:00,mfh,77.95
2024-01-09T10:30:00,mfh,78.14
2024-01-09T10:31:00,mfh,79.40
2024-01-09T10:32:00,mfh,78.89
2024-01-09T10:33:00,mfh,78.78
2024-01-09T10:34:00,mfh,79.12
2024-01-09T10:35:00,mfh,79.22
2024-01-09T10:36:00,mfh,79.19
2024-01-09T10:37:00,mfh,78.68
2024-01-09T10:38:00,mfh,79.30
2024-01-09T10:39:00,mfh,78.87
2024-01-09T10:40:00,mfh,79.16
2024-01-09T10:41:00,mfh,78.82
2024-01-09T10:42:00,mfh,79.36
2024-01-09T10:43:00,mfh,80.17
2024-01-09T10:44:00,mfh,79.99
2024-01-09T10:45:00,mfh,80.53
2024-01-09T10:46:00,mfh,80.72
2024-01-09T10:47:00,mfh,80.72
2024-01-09T10:48:00,mfh,80.30
2024-01-09T10:49:00,mfh,80.11
2024-01-09T10:50:00,mfh,80.07
2024-01-09T10:51:00,mfh,79.74
2024-01-09T10:52:00,mfh,78.45
2024-01-09T10:53:00,mfh,78.18
2024-01-09T10:54:00,mfh,78.25
2024-01-09T10:55:00,mfh,78.20
2024-01-09T10:56:00,mfh,74.39
2024-01-09T10:57:00,mfh,70.66
2024-01-09T10:58:00,mfh,70.38
2024-01-09T10:59:00,mfh,78.03
2024-01-09T11:00:00,mfh,77.17
2024-01-09T11:01:00,mfh,77.36
2024-01-09T11:02:00,mfh,76.91
2024-01-09T11:03:00,mfh,77.07
2024-01-09T11:04:00,mfh,77.07
2024-01-09T11:05:00,mfh,78.27
2024-01-09T11:06:00,mfh,76.76
2024-01-09T11:07:00,mfh,76.38
2024-01-09T11:08:00,mfh,77.04
2024-01-09T11:09:00,mfh,76.85
2024-01-09T11:10:00,mfh,78.70
2024-01-09T11:11:00,mfh,76.72
2024-01-09T11:12:00,mfh,76.88
2024-01-09T11:13:00,mfh,76.62
2024-01-09T11:14:00,mfh,77.15
2024-01-09T11:15:00,mfh,76.41
2024-01-09T11:16:00,mfh,75.85
2024-01-09T11:17:00,mfh,75.93
2024-01-09T11:18:00,mfh,75.90
2024-01-09T11:19:00,mfh,75.47
2024-01-09T11:20:00,mfh,75.30
2024-01-09T11:21:00,mfh,76.36
2024-01-09T11:22:00,mfh,76.96
2024-01-09T11:23:00,mfh,75.78
2024-01-09T11:24:00,mfh,75.88
2024-01-09T11:25:00,mfh,76.46
2024-01-09T11:26:00,mfh,75.87
2024-01-09T11:27:00,mfh,76.80
2024-01-09T11:28:00,mfh,76.91
2024-01-09T11:29:00,mfh,77.22
2024-01-09T11:30:00,mfh,77.77
2024-01-09T11:31:00,mfh,78.76
2024-01-09T11:32:00,mfh,78.99
2024-01-09T11:33:00,mfh,78.55
2024-01-09T11:34:00,mfh,77.75
2024-01-09T11:35:00,mfh,77.65
2024-01-09T11:36:00,mfh,78.59
2024-01-09T11:37:00,mfh,77.66
2024-01-09T11:38:00,mfh,78.61
2024-01-09T11:39:00,mfh,78.77
2024-01-09T11:40:00,mfh,78.63
2024-01-09T11:41:00,mfh,79.17
2024-01-09T11:42:00,mfh,78.80
2024-01-09T11:43:00,mfh,78.48
2024-01-09T11:44:00,mfh,79.22
2024-01-09T11:45:00,mfh,78.30
2024-01-09T11:46:00,mfh,78.30
2024-01-09T11:47:00,mfh,77.50
2024-01-09T11:48:00,mfh,77.60
2024-01-09T11:49:00,mfh,78.03
2024-01-09T11:50:00,mfh,78.67
2024-01-09T11:51:00,mfh,78.62
2024-01-09T11:52:00,mfh,78.31
2024-01-09T11:53:00,mfh,78.59
2024-01-09T11:54:00,mfh,78.49
2024-01-09T11:55:00,mfh,78.94
2024-01-09T11:56:00,mfh,78.70
2024-01-09T11:57:00,mfh,78.61
2024-01-09T11:58:00,mfh,78.48
2024-01-09T11:59:00,mfh,78.08
2024-01-09T12:00:00,mfh,77.69
2024-01-09T12:01:00,mfh,78.67
2024-01-09T12:02:00,mfh,77.65
2024-01-09T12:03:00,mfh,78.32
2024-01-09T12:04:00,mfh,79.16
2024-01-09T12:05:00,mfh,78.34
2024-01-09T12:06:00,mfh,79.24
2024-01-09T12:07:00,mfh,79.53
2024-01-09T12:08:00,mfh,79.25
2024-01-09T12:09:00,mfh,79.86
2024-01-09T12:10:00,mfh,79.48
2024-01-09T12:11:00,mfh,79.92
2024-01-09T12:12:00,mfh,79.58
2024-01-09T12:13:00,mfh,79.61
2024-01-09T12:14:00,mfh,79.99
2024-01-09T12:15:00,mfh,79.09
2024-01-09T12:16:00,mfh,78.91
2024-01-09T12:17:00,mfh,79.27
2024-01-09T12:18:00,mfh,78.79
2024-01-09T12:19:00,mfh,78.92
2024-01-09T12:20:00,mfh,78.75
2024-01-09T12:21:00,mfh,78.74
2024-01-09T12:22:00,mfh,78.92
2024-01-09T12:23:00,mfh,78.60
2024-01-09T12:24:00,mfh,78.65
2024-01-09T12:25:00,mfh,78.51
2024-01-09T12:26:00,mfh,78.45
2024-01-09T12:27:00,mfh,77.95
2024-01-09T12:28:00,mfh,78.46
2024-01-09T12:29:00,mfh,78.91
2024-01-09T12:30:00,mfh,78.37
2024-01-09T12:31:00,mfh,78.15
2024-01-09T12:32:00,mfh,79.18
2024-01-09T12:33:00,mfh,78.80
2024-01-09T12:34:00,mfh,77.86
2024-01-09T12:35:00,mfh,78.70
2024-01-09T12:36:00,mfh,78.57
2024-01-09T12:37:00,mfh,78.73
2024-01-09T12:38:00,mfh,78.87
2024-01-09T12:39:00,mfh,78.59
2024-01-09T12:40:00,mfh,78.57
2024-01-09T12:41:00,mfh,78.69
2024-01-09T12:42:00,mfh,77.90
2024-01-09T12:43:00,mfh,78.17
2024-01-09T12:44:00,mfh,78.40
2024-01-09T12:45:00,mfh,78.91
2024-01-09T12:46:00,mfh,78.90
2024-01-09T12:47:00,mfh,78.09
2024-01-09T12:48:00,mfh,77.67
2024-01-09T12:49:00,mfh,77.97
2024-01-09T12:50:00,mfh,77.56
2024-01-09T12:51:00,mfh,77.95
2024-01-09T12:52:00,mfh,77.59
2024-01-09T12:53:00,mfh,77.63
2024-01-09T12:54:00,mfh,77.61
2024-01-09T12:55:00,mfh,78.52
2024-01-09T12:56:00,mfh,77.18
2024-01-09T12:57:00,mfh,77.34
2024-01-09T12:58:00,mfh,78.76
2024-01-09T12:59:00,mfh,79.05
2024-01-09T13:00:00,mfh,78.76
2024-01-09T13:01:00,mfh,78.50
2024-01-09T13:02:00,mfh,78.70
2024-01-09T13:03:00,mfh,78.38
2024-01-09T13:04:00,mfh,78.16
2024-01-09T13:05:00,mfh,78.04
2024-01-09T13:06:00,mfh,78.10
2024-01-09T13:07:00,mfh,77.99
2024-01-09T13:08:00,mfh,78.56
2024-01-09T13:09:00,mfh,78.54
2024-01-09T13:10:00,mfh,79.31
2024-01-09T13:11:00,mfh,79.92
2024-01-09T13:12:00,mfh,79.72
2024-01-09T13:13:00,mfh,80.33
2024-01-09T13:14:00,mfh,76.55
2024-01-09T13:15:00,mfh,76.86
2024-01-09T13:16:00,mfh,76.90
2024-01-09T13:17:00,mfh,76.31
2024-01-09T13:18:00,mfh,76.10